EW1336 Weather Reports


Display with metric or nautical units.
time (UTC)temp
F
wind
direction
speed
MPH
gust
MPH
rain 1hr
in
rain 24hr
in
rain mn
in
humidity
%
barometer
mb
20260902170057 45 274 0.0 5.0 0.00 0.00 0.00 69 1011.2
20260902164555 44 266 0.0 5.0 0.00 0.00 0.00 69 1011.1
20260902163045 44 250 0.0 3.0 0.00 0.00 0.00 72 1010.9
20260902161543 43 278 0.0 3.0 0.00 0.00 0.00 73 1010.8
20260902160055 43 323 0.0 5.0 0.00 0.00 0.00 74 1010.9
20260902154544 42 279 0.0 3.0 0.00 0.00 0.00 73 1010.9
20260902153042 42 281 0.0 1.0 0.00 0.00 0.00 75 1011.0
20260902151536 41 277 0.0 3.0 0.00 0.00 0.00 75 1011.1
20260902150034 41 49 0.0 2.0 0.00 0.00 0.00 76 1010.8
20260902144531 41 263 0.0 1.0 0.00 0.00 0.00 76 1010.7
20260902143032 41 232 0.0 3.0 0.00 0.00 0.00 75 1010.4
20260902141528 40 277 0.0 1.0 0.00 0.00 0.00 75 1010.1
20260902140025 40 228 0.0 2.0 0.00 0.00 0.00 75 1009.8
20260902134525 40 260 0.0 2.0 0.00 0.00 0.00 73 1009.7
20260902133023 40 274 0.0 2.0 0.00 0.00 0.00 72 1009.7
20260902131521 40 207 0.0 4.0 0.00 0.00 0.00 72 1009.5
20260902130018 40 231 0.0 3.0 0.00 0.00 0.00 72 1009.1
20260902124521 40 265 0.0 2.0 0.00 0.00 0.00 72 1009.0
20260902123016 40 260 0.0 1.0 0.00 0.00 0.00 71 1009.1
20260902121514 40 264 0.0 2.0 0.00 0.00 0.00 70 1009.1
20260902120020 40 266 0.0 1.0 0.00 0.00 0.00 69 1009.1
20260902114512 40 210 0.0 2.0 0.00 0.00 0.00 68 1009.1
20260902113011 40 266 0.0 1.0 0.00 0.00 0.00 69 1009.2
20260902111510 40 200 0.0 1.0 0.00 0.00 0.00 68 1009.1
20260902110008 41 225 0.0 1.0 0.00 0.00 0.00 68 1008.6
20260902104515 41 13 0.0 2.0 0.00 0.00 0.00 66 1008.6
20260902103005 41 271 0.0 1.0 0.00 0.00 0.00 66 1008.8
20260902101507 41 253 0.0 1.0 0.00 0.00 0.00 65 1009.0
20260902100003 41 249 0.0 0.0 0.00 0.00 0.00 65 1008.8
20260902094502 41 276 0.0 1.0 0.00 0.00 0.00 65 1008.5
20260902093000 41 270 0.0 2.0 0.00 0.00 0.00 64 1008.4
20260902091613 41 264 0.0 2.0 0.00 0.00 0.00 64 1008.5
20260902090058 41 217 0.0 2.0 0.00 0.00 0.00 63 1008.7
20260902084555 41 221 0.0 2.0 0.00 0.00 0.00 61 1008.7
20260902083057 42 264 0.0 3.0 0.00 0.00 0.00 58 1008.6
20260902081553 42 259 0.0 2.0 0.00 0.00 0.00 55 1008.3
20260902080052 42 280 0.0 5.0 0.00 0.00 0.00 54 1008.4
20260902074548 42 245 0.0 6.0 0.00 0.00 0.00 55 1008.2
20260902073048 42 270 1.0 6.0 0.00 0.00 0.00 56 1007.8
20260902071549 42 274 0.0 4.0 0.00 0.00 0.00 57 1007.9
20260902070047 43 122 0.0 2.0 0.00 0.00 0.00 56 1007.9
20260902064544 43 245 0.0 5.0 0.00 0.00 0.00 56 1008.2
20260902063040 43 249 0.0 5.0 0.00 0.00 0.00 61 1008.3
20260902061541 43 284 0.0 2.0 0.00 0.00 0.00 59 1007.8
20260902060039 43 292 0.0 4.0 0.00 0.00 0.00 54 1007.2
20260902054534 43 286 0.0 5.0 0.00 0.00 0.00 55 1007.3
20260902053035 43 271 0.0 3.0 0.00 0.00 0.00 58 1007.1
20260902051531 44 276 0.0 4.0 0.00 0.00 0.00 58 1007.2
20260902050033 44 239 0.0 3.0 0.00 0.00 0.00 57 1007.1
20260902044527 44 264 0.0 2.0 0.00 0.00 0.00 57 1007.0
20260902043026 44 267 0.0 3.0 0.00 0.00 0.00 56 1006.8
20260902041540 45 245 0.0 3.0 0.00 0.00 0.00 57 1006.8
20260902040021 45 256 0.0 1.0 0.00 0.00 0.00 54 1006.6
20260902034519 46 272 0.0 2.0 0.00 0.00 0.00 52 1006.5
20260902033017 46 274 0.0 5.0 0.00 0.00 0.00 52 1006.4
20260902031516 46 274 0.0 3.0 0.00 0.00 0.00 54 1006.2
20260902030015 47 274 0.0 3.0 0.00 0.00 0.00 54 1006.1
20260902024514 47 271 0.0 2.0 0.00 0.00 0.00 53 1006.0
20260902023014 48 273 0.0 2.0 0.00 0.00 0.00 51 1005.8
20260902021515 49 280 0.0 2.0 0.00 0.00 0.00 49 1005.7
20260902020021 50 280 0.0 3.0 0.00 0.00 0.00 49 1005.4
20260902014513 50 273 0.0 3.0 0.00 0.00 0.00 48 1005.4
20260902013012 52 259 0.0 3.0 0.00 0.00 0.00 47 1005.5
20260902011512 53 278 0.0 2.0 0.00 0.00 0.00 45 1005.3
20260902010017 54 267 0.0 4.0 0.00 0.00 0.00 43 1005.2
20260902004509 55 274 0.0 5.0 0.00 0.00 0.00 40 1005.4
20260902003010 56 281 0.0 4.0 0.00 0.00 0.00 41 1005.4
20260902001516 57 252 0.0 6.0 0.00 0.00 0.00 37 1005.4
20260902000021 57 305 0.0 4.0 0.00 0.00 0.00 38 1005.4
20260901234507 59 242 0.0 4.0 0.00 0.00 0.00 38 1005.4
20260901233006 60 276 0.0 4.0 0.00 0.00 0.00 35 1005.4
20260901231509 59 255 0.0 3.0 0.00 0.00 0.00 37 1005.4
20260901230002 57 260 0.0 5.0 0.00 0.00 0.00 40 1005.1
20260901224502 58 226 1.0 4.0 0.00 0.00 0.00 39 1005.2
20260901223002 58 240 0.0 5.0 0.00 0.00 0.00 38 1005.1
20260901221501 59 248 0.0 2.0 0.00 0.00 0.00 38 1005.3
20260901220101 59 259 0.0 5.0 0.00 0.00 0.00 37 1005.2
20260901214602 60 241 0.0 3.0 0.00 0.00 0.00 35 1005.1
20260901213059 60 249 0.0 6.0 0.00 0.00 0.00 32 1005.2
20260901211558 62 262 1.0 4.0 0.00 0.00 0.00 27 1005.3
20260901210110 63 283 1.0 4.0 0.00 0.00 0.00 28 1005.1
20260901204555 62 253 0.0 4.0 0.00 0.00 0.00 30 1005.2
20260901203109 61 186 0.0 5.0 0.00 0.00 0.00 35 1005.2
20260901201555 61 339 0.0 4.0 0.00 0.00 0.00 36 1005.4
20260901200058 61 274 1.0 4.0 0.00 0.00 0.00 34 1005.4
20260901194552 61 263 0.0 3.0 0.00 0.00 0.00 35 1005.5
20260901193049 61 222 0.0 2.0 0.00 0.00 0.00 36 1005.6
20260901191559 61 255 0.0 4.0 0.00 0.00 0.00 35 1005.8
20260901190105 60 225 1.0 3.0 0.00 0.00 0.00 35 1006.0
20260901184547 61 255 0.0 3.0 0.00 0.00 0.00 34 1005.8
20260901183045 60 281 0.0 3.0 0.00 0.00 0.00 33 1005.7
20260901181543 60 219 0.0 5.0 0.00 0.00 0.00 34 1005.8
20260901180042 59 270 0.0 2.0 0.00 0.00 0.00 36 1005.6
20260901174539 58 276 0.0 2.0 0.00 0.00 0.00 38 1005.6
20260901173037 57 271 0.0 3.0 0.00 0.00 0.00 38 1005.5
20260901171534 56 273 0.0 4.0 0.00 0.00 0.00 43 1005.3